Location: Cedar Brake
(32.2526°N, 97.8459°W)
Time: 16:47:24
(UTC+00:00)

Meteor 1-13 Rocket - Pass Details

Date: 22 April 2026
Orbit: 829 x 911 km, 81.3° (Epoch: 9 May)

Event Time Altitude Azimuth Distance (km) Brightness Sun altitude
Rises 11:09:16 0° 184° (S) 3,365 7.1 -9.9°
Reaches altitude 10° 11:11:39 10° 184° (S) 2,429 6.4 -9.4°
Maximum altitude 11:17:09 83° 97° (E) 838 4.3 -8.3°
Drops below altitude 10° 11:22:40 10° 10° (N) 2,442 7.0 -7.2°
Sets 11:25:05 0° 9° (N) 3,383 7.8 -6.7°
